Regional Weather Roundup
Issued by NWS

Home | Current Version | Previous Version | Text Only | Print | Product List | Glossary Off
Versions: 1 2 3 4 5 6 7 8 9 10 11 12 13 14 15 16 17 18 19 20 21 22 23 24 25 26 27 28 29 30 31 32 33 34 35 36 37 38 39 40 41 42 43 44 45 46 47 48 49 50

000
ASUS43 KDTX 231701
RWRMI
MICHIGAN HOURLY REGIONAL WEATHER ROUNDUP
NATIONAL WEATHER SERVICE DETROIT/PONTIAC MI
1200 PM EST FRI FEB 23 2018

NOTE: "FAIR" INDICATES FEW OR NO CLOUDS BELOW 12,000 FEET WITH NO
SIGNIFICANT WEATHER AND/OR OBSTRUCTION TO VISIBILITY.

MIZ047>049-052>055-059>063-066>070-074>076-081>083-231800-
SOUTHEAST LOWER MICHIGAN

CITY           SKY/WX    TMP DP  RH WIND       PRES   REMARKS
ADRIAN         CLOUDY    41  39  93 SW8       30.11S
ALMA           FOG       38  38 100 SW3       30.07S VSB 1
ANN ARBOR      CLOUDY    42  41  96 VRB5      30.08F
BAD AXE        CLOUDY    37  37 100 SW7       30.06S WCI  31
CARO           LGT RAIN  40  40  99 SW6       30.05S VSB 1
DETROIT CITY   CLOUDY    43  41  93 SW7       30.09F FOG
DETROIT        CLOUDY    41  40  96 S6        30.10F
FLINT          CLOUDY    42  41  96 SW10      30.07R FOG
GROSSE ILE     CLOUDY    38  37  98 S5        30.10F WCI  34
HILLSDALE      CLOUDY    43  43 100 SW9       30.09R
HOWELL         CLOUDY    41  41  99 SW6       30.07F FOG

CITY           SKY/WX    TMP DP  RH WIND       PRES   REMARKS
JACKSON        CLOUDY    45  44  97 SW8       30.08F
LAMBERTVILLE   CLOUDY    45  44  97 SW7       30.10F FOG
LANSING        CLOUDY    42  42 100 SW10      30.09R FOG
LAPEER         CLOUDY    42  42  97 S9        30.06S
MASON          CLOUDY    43  40  88 SW6       30.08S FOG
MONROE         CLOUDY    39  37  93 SE5       30.10F
MT. CLEMENS    LGT RAIN  39  39 100 S5        30.08S FOG
PONTIAC        CLOUDY    40  40 100 S6        30.07S FOG
PORT HOPE        N/A     37  35  92 SW5       30.04S WCI  33
PORT HURON     DRIZZLE   39  37  93 S6        30.09F WCI  35
TRI CITIES     FOG       37  36  96 SW8       30.07F VSB 1   WCI  31
MIDLAND        CLOUDY    38  38  98 SW6       30.06S FOG     WCI  34
TROY           CLOUDY    41  40  96 S6        30.10F FOG
SAGINAW HB     CLOUDY    37  36  93 SW6       30.06F FOG     WCI  33
$$
MIZ043>046-050>051-056>058-064>065-071>073-077>080-231800-
SOUTHWEST LOWER MICHIGAN

CITY           SKY/WX    TMP DP  RH WIND       PRES   REMARKS
BATTLE CREEK   CLOUDY    43  41  93 SW13      30.10R FOG
BENTON HARBOR  CLOUDY    45  42  89 SW17G25   30.13R FOG
BIG RAPIDS     CLOUDY    36  34  93 CALM      30.05S FOG
COLDWATER      CLOUDY    45  45 100 SW10      30.11R
HOLLAND        CLOUDY    43  41  93 SW17      30.10R FOG
GRAND RAPIDS   DRIZZLE   44  42  93 SW12      30.08R FOG
IONIA          CLOUDY    42  42 100 SW9       30.07S FOG
KALAMAZOO      CLOUDY    43  41  93 SW7       30.11R FOG
LUDINGTON      CLOUDY    38  38 100 SW13G22   30.05S FOG     WCI  30
MARSHALL       CLOUDY    43  42  97 SW9       30.09R
MOUNT PLEASANT CLOUDY    38  37  95 SW6       30.05F FOG     WCI  33
MUSKEGON       CLOUDY    40  38  93 SW16      30.09R FOG     WCI  31
SOUTH HAVEN    CLOUDY    45  43  93 SW16      30.12R FOG
$$
MIZ016>042-231800-
NORTHERN LOWER MICHIGAN

CITY           SKY/WX    TMP DP  RH WIND       PRES   REMARKS
ALPENA         CLOUDY    36  36 100 SW7       30.01F WCI  30
BEAVER ISLAND  CLOUDY    35  34  97 SW9G16    29.98F FOG     WCI  28
BELLAIRE       CLOUDY    36  36 100 CALM      30.02S FOG
CADILLAC       CLOUDY    36  36  99 SW8       30.00F FOG     WCI  30
CHARLEVOIX     CLOUDY    37  37 100 S10G16    30.02F FOG     WCI  30
FRANKFORT      CLOUDY    38  38 100 SW10G20   30.03S FOG     WCI  31
GAYLORD        CLOUDY    35  35 100 SW10      29.98F FOG     WCI  27
GRAYLING       CLOUDY    35  35  98 SW6       29.99F WCI  30
HARBOR SPRINGS CLOUDY    35  34  99 SW6       29.99F WCI  30
HOUGHTON LAKE  CLOUDY    34  33  96 SW6       30.02F FOG     WCI  29
MANISTEE       CLOUDY    40  38  93 SW10      30.03F WCI  33
OSCODA         CLOUDY    37  36  97 SW13      30.03F WCI  28
PELLSTON       CLOUDY    37  34  89 SW8       29.99F WCI  31
ROGERS CITY    DRIZZLE   35  34  94 SW6       30.01F WCI  30
TRAVERSE CITY  DRIZZLE   40  37  89 S3        30.01F FOG
$$
MIZ007>008-015-231800-
EASTERN UPPER MICHIGAN

CITY           SKY/WX    TMP DP  RH WIND       PRES   REMARKS
KINROSS        LGT RAIN  33  32  96 S8        29.97F WCI  26
MACKINAC ISLAN CLOUDY    32  32 100 S3        29.98F FOG
NEWBERRY       CLOUDY    32  32  99 S13       29.95F FOG     WCI  22
S. S. MARIE    CLOUDY    33  31  92 SE5       29.98S FOG     WCI  29
MUNISING         N/A     35  32  88 SW10      29.96R WCI  27
$$
MIZ004>006-011>014-085-231800-
CENTRAL UPPER MICHIGAN

CITY           SKY/WX    TMP DP  RH WIND       PRES   REMARKS
MANISTIQUE     FOG       32  31  96 SW6       29.97F VSB 1/2 WCI  26
ESCANABA       MIX PCPN  35  32  88 SW10      29.98S WCI  27
MENOMINEE      CLOUDY    37  36  96 W8        30.01S WCI  31
SAWYER-GWINN   CLOUDY    32  28  86 SW12      29.94S WCI  23
$$
MIZ001>003-009>011-084-231800-
WESTERN UPPER MICHIGAN

CITY           SKY/WX    TMP DP  RH WIND       PRES   REMARKS
IRON MOUNTAIN  CLOUDY    35  31  85 VRB5      29.93F WCI  31
HOUGHTON       CLOUDY    30  23  75 W12       29.92F HAZE    WCI  20
COPPER HARBOR    N/A     30  25  81 VRB5      29.93F WCI  25
IRONWOOD       CLOUDY    28  24  85 W17       30.00R WCI  16
$$

ABBREVIATIONS USED IN REMARKS
   TC - TEMPERATURE IN CELSIUS
  WCI - WIND CHILL INDEX
   HX - HEAT INDEX
  VSB - VISIBILITY





USA.gov is the U.S. government's official web portal to all federal, state and local government web resources and services.